• In Germany
  • List of Countries
  • For 7 days
  • Water Temperature
  • Satellite Maps
  • Weather Map
  • Weather Widgets
  • user-avatar
    Login

    Hourly Weather Prutz

    Today, 25 May, Thursday

    Time Temperature Precipitation Wind Pressure Humidity
    00:00 +8°C° 0.8 mm 1 mps 636 mmHg 96%
    01:00 +7°C° 0 mm 2 mps 635 mmHg 97%
    02:00 +7°C° 0.1 mm 1 mps 635 mmHg 97%
    03:00 +6°C° 0.1 mm 1 mps 635 mmHg 97%
    04:00 +5°C° 0.1 mm 1 mps 634 mmHg 97%
    05:00 +6°C° 0 mm 1 mps 635 mmHg 95%
    06:00 +8°C° 0 mm 1 mps 636 mmHg 92%
    07:00 +9°C° 0 mm 1 mps 636 mmHg 90%
    08:00 +10°C° 0 mm 1 mps 637 mmHg 83%
    09:00 +12°C° 0 mm 1 mps 637 mmHg 75%
    10:00 +13°C° 0 mm 1 mps 637 mmHg 67%
    11:00 +14°C° 0 mm 1 mps 637 mmHg 63%
    12:00 +15°C° 0 mm 2 mps 638 mmHg 59%
    13:00 +16°C° 0 mm 2 mps 638 mmHg 55%
    14:00 +15°C° 0 mm 2 mps 638 mmHg 57%
    15:00 +15°C° 0 mm 2 mps 637 mmHg 60%
    16:00 +15°C° 0 mm 2 mps 637 mmHg 63%
    17:00 +13°C° 0 mm 2 mps 637 mmHg 71%
    18:00 +12°C° 0 mm 2 mps 636 mmHg 78%
    19:00 +11°C° 0 mm 1 mps 636 mmHg 86%
    20:00 +10°C° 0 mm 1 mps 636 mmHg 89%
    21:00 +8°C° 0 mm 1 mps 635 mmHg 93%
    22:00 +7°C° 0 mm 1 mps 635 mmHg 97%
    23:00 +6°C° 0 mm 1 mps 635 mmHg 97%

    Tomorrow, 26 May, Friday

    Time Temperature Precipitation Wind Pressure Humidity
    00:00 +6°C° 0 mm 1 mps 635 mmHg 97%
    01:00 +5°C° 0 mm 1 mps 635 mmHg 96%
    02:00 +5°C° 0 mm 1 mps 634 mmHg 96%
    03:00 +4°C° 0 mm 1 mps 634 mmHg 95%
    04:00 +4°C° 0 mm 1 mps 634 mmHg 94%
    05:00 +6°C° 0 mm 1 mps 635 mmHg 86%
    06:00 +9°C° 0 mm 1 mps 635 mmHg 77%
    07:00 +11°C° 0 mm 1 mps 636 mmHg 69%
    08:00 +13°C° 0 mm 1 mps 637 mmHg 61%
    09:00 +15°C° 0 mm 1 mps 638 mmHg 52%
    10:00 +17°C° 0 mm 2 mps 638 mmHg 44%
    11:00 +18°C° 0 mm 2 mps 638 mmHg 43%
    12:00 +19°C° 0 mm 2 mps 638 mmHg 42%
    13:00 +20°C° 0 mm 2 mps 639 mmHg 41%
    14:00 +19°C° 0 mm 2 mps 638 mmHg 43%
    15:00 +19°C° 0 mm 2 mps 638 mmHg 45%
    16:00 +19°C° 0 mm 2 mps 638 mmHg 47%
    17:00 +17°C° 0 mm 2 mps 637 mmHg 58%
    18:00 +15°C° 0 mm 2 mps 637 mmHg 69%
    19:00 +14°C° 0 mm 1 mps 636 mmHg 80%
    20:00 +11°C° 0 mm 1 mps 635 mmHg 85%
    21:00 +8°C° 0 mm 1 mps 635 mmHg 90%
    22:00 +6°C° 0 mm 1 mps 634 mmHg 95%
    23:00 +6°C° 0 mm 1 mps 634 mmHg 94%

    Day after tomorrow, 27 May, Saturday

    Time Temperature Precipitation Wind Pressure Humidity
    00:00 +5°C° 0 mm 1 mps 634 mmHg 93%
    01:00 +5°C° 0 mm 1 mps 634 mmHg 92%
    02:00 +5°C° 0 mm 1 mps 634 mmHg 90%
    03:00 +6°C° 0 mm 1 mps 634 mmHg 88%
    04:00 +6°C° 0 mm 1 mps 634 mmHg 86%
    05:00 +8°C° 0 mm 1 mps 636 mmHg 78%
    06:00 +11°C° 0 mm 1 mps 637 mmHg 71%
    07:00 +12°C° 0 mm 0 mps 638 mmHg 63%
    08:00 +16°C° 0 mm 1 mps 638 mmHg 54%
    09:00 +19°C° 0 mm 1 mps 639 mmHg 45%
    10:00 +21°C° 0 mm 1 mps 640 mmHg 36%
    11:00 +22°C° 0 mm 1 mps 640 mmHg 35%
    12:00 +21°C° 0 mm 2 mps 640 mmHg 35%
    13:00 +23°C° 0 mm 2 mps 640 mmHg 35%
    14:00 +23°C° 0 mm 2 mps 640 mmHg 38%
    15:00 +21°C° 0 mm 2 mps 640 mmHg 42%
    16:00 +21°C° 0 mm 2 mps 640 mmHg 45%
    17:00 +19°C° 0.1 mm 2 mps 639 mmHg 57%
    18:00 +18°C° 0.1 mm 1 mps 639 mmHg 68%
    19:00 +15°C° 0.1 mm 1 mps 638 mmHg 80%
    20:00 +13°C° 0 mm 1 mps 637 mmHg 85%
    21:00 +10°C° 0 mm 1 mps 637 mmHg 90%
    22:00 +6°C° 0 mm 0 mps 636 mmHg 95%
    23:00 +8°C° 0 mm 1 mps 637 mmHg 95%

    28 May, Sunday

    Time Temperature Precipitation Wind Pressure Humidity
    00:00 +9°C° 0 mm 1 mps 637 mmHg 94%
    01:00 +9°C° 0 mm 1 mps 637 mmHg 94%
    02:00 +9°C° 0 mm 1 mps 637 mmHg 94%
    03:00 +9°C° 0 mm 1 mps 637 mmHg 94%
    04:00 +9°C° 0 mm 1 mps 637 mmHg 94%
    05:00 +11°C° 0 mm 1 mps 638 mmHg 88%
    06:00 +12°C° 0 mm 1 mps 639 mmHg 83%
    07:00 +14°C° 0 mm 1 mps 639 mmHg 77%
    08:00 +18°C° 0 mm 1 mps 640 mmHg 65%
    09:00 +20°C° 0 mm 1 mps 641 mmHg 53%
    10:00 +23°C° 0 mm 1 mps 642 mmHg 40%
    11:00 +23°C° 0 mm 1 mps 642 mmHg 38%
    12:00 +24°C° 0 mm 1 mps 642 mmHg 37%
    13:00 +24°C° 0 mm 1 mps 642 mmHg 35%
    14:00 +24°C° 0.1 mm 1 mps 641 mmHg 38%
    15:00 +23°C° 0.1 mm 2 mps 641 mmHg 42%
    16:00 +23°C° 0.1 mm 2 mps 641 mmHg 45%
    17:00 +21°C° 0.2 mm 1 mps 640 mmHg 57%
    18:00 +19°C° 0.2 mm 1 mps 640 mmHg 69%
    19:00 +18°C° 0.2 mm 1 mps 639 mmHg 81%
    20:00 +14°C° 0.1 mm 1 mps 638 mmHg 86%
    21:00 +12°C° 0.1 mm 1 mps 638 mmHg 91%
    22:00 +8°C° 0.1 mm 0 mps 637 mmHg 96%
    23:00 +10°C° 0 mm 1 mps 637 mmHg 95%

    29 May, Monday

    Time Temperature Precipitation Wind Pressure Humidity
    00:00 +10°C° 0 mm 1 mps 637 mmHg 95%
    01:00 +11°C° 0 mm 1 mps 637 mmHg 95%
    02:00 +10°C° 0 mm 1 mps 637 mmHg 94%
    03:00 +10°C° 0 mm 1 mps 637 mmHg 94%
    04:00 +10°C° 0 mm 1 mps 636 mmHg 94%
    05:00 +12°C° 0 mm 1 mps 637 mmHg 88%
    06:00 +14°C° 0 mm 1 mps 638 mmHg 83%
    07:00 +16°C° 0 mm 1 mps 638 mmHg 78%
    08:00 +19°C° 0 mm 1 mps 639 mmHg 68%
    09:00 +21°C° 0 mm 1 mps 640 mmHg 57%
    10:00 +23°C° 0 mm 1 mps 640 mmHg 47%
    11:00 +24°C° 0 mm 1 mps 640 mmHg 45%
    12:00 +24°C° 0 mm 1 mps 640 mmHg 43%
    13:00 +25°C° 0 mm 1 mps 640 mmHg 40%
    14:00 +24°C° 0.3 mm 1 mps 639 mmHg 46%
    15:00 +23°C° 0.3 mm 1 mps 638 mmHg 52%
    16:00 +23°C° 0.3 mm 1 mps 638 mmHg 58%
    17:00 +21°C° 0.5 mm 1 mps 637 mmHg 67%
    18:00 +20°C° 0.5 mm 1 mps 637 mmHg 77%
    19:00 +18°C° 0.5 mm 1 mps 637 mmHg 86%
    20:00 +15°C° 0.5 mm 1 mps 636 mmHg 89%
    21:00 +13°C° 0.5 mm 1 mps 635 mmHg 92%
    22:00 +11°C° 0.5 mm 1 mps 635 mmHg 95%
    23:00 +12°C° 0.4 mm 1 mps 635 mmHg 95%

    30 May, Tuesday

    Time Temperature Precipitation Wind Pressure Humidity
    00:00 +12°C° 0.4 mm 1 mps 635 mmHg 95%
    01:00 +12°C° 0.4 mm 1 mps 635 mmHg 95%
    02:00 +11°C° 0.3 mm 1 mps 635 mmHg 95%
    03:00 +11°C° 0.3 mm 1 mps 634 mmHg 95%
    04:00 +10°C° 0.3 mm 1 mps 634 mmHg 95%
    05:00 +12°C° 0.1 mm 1 mps 635 mmHg 92%
    06:00 +14°C° 0.1 mm 1 mps 636 mmHg 88%
    07:00 +15°C° 0.1 mm 0 mps 636 mmHg 84%
    08:00 +17°C° 0.3 mm 0 mps 637 mmHg 77%
    09:00 +20°C° 0.3 mm 1 mps 637 mmHg 70%
    10:00 +22°C° 0.3 mm 1 mps 638 mmHg 63%
    11:00 +22°C° 1.3 mm 1 mps 638 mmHg 66%
    12:00 +22°C° 1.3 mm 1 mps 637 mmHg 69%
    13:00 +21°C° 1.3 mm 1 mps 637 mmHg 72%
    14:00 +21°C° 1.8 mm 1 mps 637 mmHg 74%
    15:00 +20°C° 1.8 mm 1 mps 637 mmHg 77%
    16:00 +20°C° 1.8 mm 1 mps 637 mmHg 80%
    17:00 +19°C° 1.4 mm 1 mps 637 mmHg 84%
    18:00 +18°C° 1.4 mm 1 mps 636 mmHg 88%
    19:00 +16°C° 1.4 mm 1 mps 636 mmHg 93%
    20:00 +13°C° 0.8 mm 0 mps 636 mmHg 94%
    21:00 +12°C° 0.8 mm 0 mps 636 mmHg 96%
    22:00 +10°C° 0.8 mm 0 mps 636 mmHg 97%
    23:00 +10°C° 0.2 mm 0 mps 636 mmHg 97%
    Show more